Starlink 3352

operational
NORAD ID: 51147 Int'l Des: 2022-005 Owner: SPXS Country: US Constellation: starlink
LEOCIRCULAR

Über Starlink 3352

Beschreibung wird geladen...

Live-Position

3D-Globus wird geladen...

Nächste Überflüge

Höhenverlauf

Altitude vs Time

uPlot chart will show altitude changes over time

Zweizeiliger Elementsatz

1 51147U 22005AV 26062.74972226 .00039214 00000-0 16003-2 0 9993
2 51147 53.1902 324.0715 0002393 105.7102 254.4160 15.24064461227865
Epoch: 3. März 2026 • Age: 45 hours

Aktueller Status

Höhe 508.3 km
Geschwindigkeit 7.61 km/s
Subsatellitenpunkt -40.59°S, 169.09°E
Startdatum 19. Jan. 2022
Alter 4.1 years
Typ internet

Technische Details

Klassifizierung Payload
Masse 297.00 kg
Trockenmasse 275.00 kg
Gesamtmasse 297.00 kg
Länge 0.20 m
Durchmesser 2.80 m
Spannweite 9.00 m
Form Box + pan
Hersteller SPXS
Bus-Typ Starlink
Phasenstatus In Orbit
Besitzer/Staat SPXS/US

Große Konstellationen

Loading constellations...